Regional Weather Roundup
Issued by NWS

Home | Current Version | Previous Version | Graphics & Text | Print | Product List | Glossary On
Versions: 1 2 3 4 5 6 7 8 9 10 11 12 13 14 15 16 17 18 19 20 21 22 23 24 25 26 27
000
ASUS45 KBOU 210307
RWRCO

WEATHER ROUNDUP FOR COLORADO
NATIONAL WEATHER SERVICE DENVER/BOULDER CO
900 PM MDT FRI OCT 20 2017

NOTE: "FAIR" INDICATES FEW OR NO CLOUDS BELOW 12000 FEET WITH NO
SIGNIFICANT WEATHER AND/OR OBSTRUCTIONS TO VISIBILITY.

COZ001>005-013-030-031-210400-
...NORTHWEST COLORADO...

CITY           SKY/WX    TMP DP  RH WIND       PRES   REMARKS
CRAIG          LGT RAIN  36  32  85 W10       29.86R
HAYDEN         LGT RAIN  37  32  81 W20G25    29.82R
MEEKER         LGT RAIN  41  37  86 NE17      29.79R
RABBIT EARS PA SNOW      32  32 100 W13G23    29.84S VSB 1/2 WCI  22
STEAMBOAT SPGS CLOUDY    42  40  91 W5        29.78R
WALDEN         NOT AVBL
$$

COZ006>008-011-210400-
...WEST CENTRAL VALLEYS...

CITY           SKY/WX    TMP DP  RH WIND       PRES   REMARKS
GRAND JUNCTION LGT RAIN  63  35  35 W20G36    29.65R
MONTROSE       MOCLDY    66  21  18 SW17G37   29.65F
EAGLE          FAIR      60  27  28 SW36G45   29.66F
RIFLE          CLOUDY    60  33  36 NW31G41   29.65R
DELTA          MOCLDY    70  21  16 SW14G23   29.60F
NUCLA          CLOUDY    64  16  15 SW15      29.70R
$$

COZ017>023-064>068-210400-
...SOUTHWEST COLORADO...

CITY           SKY/WX    TMP DP  RH WIND       PRES   REMARKS
DURANGO        FAIR      60  28  29 SW14      29.79S
CORTEZ         FAIR      62  26  25 S16       29.73S
PAGOSA SPRINGS CLOUDY    57  23  27 SW12G20   29.83F
TELLURIDE      CLOUDY    52  23  32 SW16G31   29.88S
WOLF CREEK PAS FLURRIES  34  25  69 S28G44    30.02F WCI  20
$$

COZ009-010-012-014-032>034-037-058>063-210400-
...CENTRAL COLORADO...

CITY           SKY/WX    TMP DP  RH WIND       PRES   REMARKS
ASPEN          LGT RAIN  48  34  58 NW13G31   29.75R
BUENA VISTA    FAIR      47  18  31 W3        29.76S
COPPER MTN     FAIR      37  19  48 SW12G31   29.93F
BERTHOUD PASS  FAIR      32  21  64 W24G39    29.92F WCI  19
COTTONWOOD PAS FAIR      52  19  28 SW9       29.85F
GUNNISON       FAIR      52  23  32 CALM      29.76F
KREMMLING      FAIR      54  21  28 CALM      29.69S
LEADVILLE      NOT AVBL
MONARCH PASS   FAIR      36  19  51 SW40G49   30.04F
SALIDA         FAIR      55  22  28 CALM      29.82F
SUNLIGHT       MOCLDY    36  27  69 SW28G49   29.84F
WILKERSON PASS FAIR      37  12  35 SW13G23   29.93F
$$

COZ069>075-210400-
...SAN LUIS VALLEY/SANGRE DE CRISTO MOUNTAINS...

CITY           SKY/WX    TMP DP  RH WIND       PRES   REMARKS
ALAMOSA        FAIR      49  24  37 S10       29.81F
DEL NORTE      FAIR      53  27  36 SW16G28   29.83F
LA VETA PASS   FAIR      45  21  39 S32G53    30.00F
SAGUACHE       FAIR      43  23  45 NE3       29.82F
$$

COZ035-036-038>040-210400-
...NORTHERN COLORADO FRONT RANGE...

CITY           SKY/WX    TMP DP  RH WIND       PRES   REMARKS
DENVER INTL AP FAIR      60  31  33 SW8       29.53R
DMNS CITY PARK   N/A     60  28  29 SE8       29.53S
AURORA         MOCLDY    60  25  26 SW7       29.57R
FRONT RANGE AP PTCLDY    63  27  25 S132      29.55R
ERIE MUNI ARPT FAIR      58  30  33 W3        29.57S
BOULDER MUN AP FAIR      64  25  22 S10       29.53S
CENTENNIAL     MOCLDY    61  21  21 S8        29.58R
BROOMFIELD     PTCLDY    61  25  25 W8        29.56S
FORT COLLINS   FAIR      60  31  33 E3        29.51F
LONGMONT       FAIR      56  32  40 W3        29.53F
$$

COZ041-046-047-076>085-087-088-210400-
...PIKES PEAK/PALMER DIVIDE AND SOUTHERN FOOTHILLS...

CITY           SKY/WX    TMP DP  RH WIND       PRES   REMARKS
COLO. SPRINGS  MOCLDY    65  25  22 SW25G33   29.64R
A. F. ACADEMY  FAIR      62  22  21 W5G18     29.64S
SCHRIEVER AFB  FAIR      61  22  22 SW14      29.65S
CHEYENNE MTN   FAIR      60  22  22 NW3       29.63R
ELLICOTT         N/A    N/A N/A N/A W22G37    29.63S
FALCON         FAIR      60  21  22 SW13      29.68F
FORT CARSON    FAIR      65  24  20 SW15G22   29.62S
LIMON          FAIR      60  29  30 SW17G23   29.57S
MONUMENT HILL  FAIR      54  27  35 SW13      29.68S
CANON CITY     FAIR      68  27  21 W3        29.63S
WALSENBURG     FAIR      66  25  20 SW21G31   29.69F
TRINIDAD       FAIR      57  26  30 W7        29.71S
$$

COZ042>045-048>051-090-091-210400-
...NORTHEAST COLORADO...

CITY           SKY/WX    TMP DP  RH WIND       PRES   REMARKS
GREELEY ARPT   FAIR      56  38  50 W12       29.51R
AKRON          FAIR      60  32  34 S12       29.49S
BURLINGTON     FAIR      55  38  52 S10       29.52F
WRAY           NOT AVBL
YUMA           FAIR      55  27  33 S10       29.48S
STERLING       FAIR      63  36  36 E3        29.44F
HOLYOKE        FAIR      54  41  62 SE7       29.47F
FORT MORGAN    FAIR      58  31  35 SE6       29.47F
$$

COZ086-089-092>099-210400-
...SOUTHEAST COLORADO...

CITY           SKY/WX    TMP DP  RH WIND       PRES   REMARKS
PUEBLO         FAIR      68  25  19 SW6       29.58R
LA JUNTA       FAIR      63  32  31 SW15      29.58R
LAMAR          FAIR      66  36  32 SW14      29.52S
SPRINGFIELD      N/A     61  39  44 S14       29.64R
$$




USA.gov is the U.S. government's official web portal to all federal, state and local government web resources and services.